Location: Santa Barbara
(34.4500°N, 119.7700°W)
Time: 18:55:11
(UTC-07:00)

Hubble Space Telescope - Visible Passes

Search period start: 25 March 2019 00:00
Search period end: 04 April 2019 00:00
Orbit: 537 x 540 km, 28.5° (Epoch: 25 March)

Date Brightness Start Highest point End Pass type
(mag) Time Alt. Az. Time Alt. Az. Time Alt. Az.
25 Mar 2.2 21:01:53 10° SW 21:04:31 27° SSW 21:04:31 27° SSW visible
26 Mar 1.7 20:51:16 10° WSW 20:54:48 33° S 20:54:48 33° S visible
27 Mar 1.6 20:40:42 10° WSW 20:44:30 35° S 20:45:02 33° SSE visible
28 Mar 1.6 20:30:09 10° WSW 20:33:58 36° S 20:35:13 28° SE visible
29 Mar 1.7 20:19:38 10° WSW 20:23:26 35° S 20:25:23 22° SE visible
30 Mar 1.8 20:09:08 10° WSW 20:12:53 34° S 20:15:32 17° SE visible
30 Mar 3.6 21:50:34 10° WSW 21:50:52 11° WSW 21:50:52 11° WSW visible
31 Mar 1.9 19:58:38 10° WSW 20:02:21 32° S 20:05:41 12° SE visible
31 Mar 3.4 21:40:19 10° WSW 21:41:01 13° SW 21:41:01 13° SW visible
01 Apr 2.1 19:48:11 10° WSW 19:51:49 30° S 19:55:27 10° SE visible
01 Apr 3.3 21:30:12 10° SW 21:31:11 13° SW 21:31:11 13° SW visible
02 Apr 3.3 21:20:24 10° SW 21:21:22 11° SSW 21:21:22 11° SSW visible
